Location: Bachivillers
(49.2903°N, 1.9634°E)
Time: 04:01:30
(UTC+00:00)

Daily predictions for brighter satellites

Satellite Brightness Start Highest point End
(mag) Time Altitude Azimuth Time Altitude Azimuth Time Altitude Azimuth
Cosmos 1908 3.4 00:00:29 10° N 00:04:14 62° ENE 00:05:00 49° SE
Cosmos 1842 4.3 00:03:56 30° WSW 00:04:58 36° WNW 00:08:37 10° N
Cosmos 1943 Rocket 4.4 00:02:51 10° N 00:07:18 23° NE 00:11:44 10° E
PSLV R/B 3.6 00:02:57 10° NNE 00:07:19 79° ESE 00:08:34 47° S
In-Cosmos 22 4.1 00:05:24 38° S 00:07:41 85° ESE 00:13:13 10° NNE
Cosmos 1758 3.2 00:03:54 10° NNW 00:07:53 79° W 00:08:38 57° S
Cosmos 1378 Rocket 4.1 00:06:44 36° SE 00:07:58 47° E 00:12:14 10° NNE
Cosmos 1048 Rocket 4.0 00:03:24 10° NNW 00:08:36 74° ENE 00:11:04 31° SE
Cosmos 1726 4.2 00:08:13 10° NW 00:10:27 16° W 00:10:58 15° W
ASTEX 1 3.3 00:06:01 10° N 00:10:57 87° E 00:12:41 42° S
Resurs 1-4 Rocket 4.2 00:09:34 10° NE 00:12:46 16° E 00:15:47 10° SE
ATLAS CENTAUR R/B 2.2 00:09:15 10° NW 00:13:46 39° WSW 00:14:20 38° SW
Cosmos 2278 Rocket 2.6 00:08:37 10° NNW 00:14:17 62° ENE 00:18:23 19° SE
Cosmos 494 Rocket 4.0 00:09:36 10° NNW 00:14:45 76° ENE 00:17:14 31° SSE
SL-19 R/B 4.1 00:15:56 50° W 00:15:56 50° W 00:18:38 10° NNW
NOSS 2-2 (E) 4.3 00:11:00 10° NW 00:15:59 85° NE 00:22:14 13° SE
Cosmos 1745 Rocket 4.1 00:09:53 10° N 00:16:09 72° E 00:19:30 29° SSE
Cosmos 372 Rocket 4.3 00:13:48 30° SW 00:16:13 59° WNW 00:21:22 10° NNE
Cosmos 1125 Rocket 4.3 00:16:11 30° SE 00:17:56 39° ESE 00:22:45 10° NE
ALOS 2 4.1 00:17:44 21° WSW 00:18:38 23° W 00:22:07 10° NW
Cosmos 2151 Rocket 3.5 00:14:50 10° NNW 00:19:14 79° W 00:20:27 47° S
Okean 2 Rocket 3.2 00:19:19 10° NNW 00:23:47 63° W 00:25:02 44° SSW
Cosmos 1626 2.0 00:27:00 61° SSW 00:27:33 80° W 00:31:15 10° N
Cosmos 371 Rocket 4.0 00:26:34 32° SSE 00:28:07 42° ESE 00:32:42 10° NE
NOSS 3-1 (A) 4.0 00:23:04 10° NW 00:30:27 75° SW 00:37:52 15° SSE
ATLAS 3B R/B 4.5 00:26:11 10° WNW 00:30:36 17° WSW 00:32:35 15° WSW
ADEOS II 4.5 00:28:36 10° ENE 00:30:41 12° E 00:32:45 10° ESE
Cosmos 1674 2.8 00:30:56 49° SW 00:31:37 59° WNW 00:35:21 10° N
Cosmos 1242 Rocket 3.2 00:29:00 10° NNW 00:32:22 38° W 00:32:34 38° WSW
SL-16 R/B 4.4 00:30:16 10° SE 00:33:01 14° E 00:35:47 10° ENE
GP-B 4.0 00:30:33 10° NNE 00:34:46 41° E 00:36:45 26° SE
Cosmos 2333 Rocket 2.8 00:32:04 22° WSW 00:35:34 52° NW 00:41:08 10° NNE
Cosmos 2322 Rocket 4.1 00:32:19 10° W 00:36:51 24° NW 00:41:25 10° NNE
Cosmos 2322 3.9 00:34:09 27° SW 00:37:16 66° WNW 00:43:00 10° NNE
Cosmos 1980 4.3 00:35:06 29° SSE 00:37:23 44° ESE 00:42:43 10° NE
Cosmos 1867 3.5 00:36:15 34° SSW 00:38:43 83° SE 00:44:14 10° NE
NOSS 3-1 (C) 4.4 00:31:37 10° NW 00:38:45 47° WSW 00:43:10 27° S
Okean 2 4.1 00:41:45 34° WSW 00:42:54 43° WNW 00:46:50 10° N
Cosmos 2298 Rocket 4.2 00:40:48 35° S 00:42:57 64° ESE 00:48:14 10° NNE
Thor Agena Rocket 4.1 00:39:45 10° NNE 00:44:54 50° E 00:47:25 28° SSE
USA 308 3.8 00:48:41 30° SE 00:48:50 30° SE 00:52:31 10° ENE
USA 290 2.6 00:49:09 48° W 00:49:35 53° WNW 00:52:46 10° NNE
SL-16 R/B 3.6 00:44:27 10° SE 00:50:15 44° ENE 00:56:07 10° N
NOSS 2-2 (D) 4.2 00:46:41 10° NW 00:51:39 73° SW 00:58:12 12° SSE
MOZ.5/SAFIR/RUBIN 5/SL-8 3.8 00:54:27 29° SSE 00:56:52 83° ENE 01:01:38 10° NNW
Gblst 52 Del rocket 4.3 00:52:04 10° W 00:58:10 78° NNW 01:03:44 10° ENE
Meteor 2-10 Rocket 3.7 00:56:26 10° N 01:02:11 79° ENE 01:05:42 23° SSE
Cosmos 2219 Rocket 3.1 00:59:22 18° WSW 01:03:06 42° NW 01:08:26 10° NNE
Okean 1 Rocket 3.4 01:00:54 10° NNW 01:05:12 52° W 01:06:38 36° SSW
Cosmos 1455 4.3 01:04:58 10° NNE 01:08:00 23° ENE 01:11:00 10° SE
USA 215 4.0 01:03:20 10° ENE 01:09:40 53° NNW 01:15:59 10° W
USA 32 4.0 01:08:02 31° S 01:10:39 84° W 01:15:57 10° N
Cosmos 1709 Rocket 3.9 01:04:40 10° NNW 01:10:49 75° W 01:14:26 26° S
Cosmos 2315 Rocket 4.0 01:07:44 26° S 01:11:30 84° E 01:17:56 10° N
Cosmos 1238 Rocket 4.3 01:10:38 10° NW 01:12:14 16° W 01:12:14 16° W
SL-14 R/B 3.4 01:11:29 39° SW 01:12:41 60° WNW 01:16:32 10° N
USA 305 3.1 01:11:44 39° S 01:12:50 50° SE 01:16:53 10° ENE
CZ-4 R/B 4.5 01:09:55 10° NNE 01:14:24 45° E 01:16:58 23° SSE
Cosmos 1300 2.8 01:14:10 10° NNW 01:17:54 56° W 01:18:58 40° SSW
CZ-2D R/B 2.6 01:15:23 10° NNE 01:20:42 54° E 01:24:03 22° S
S3M 4.4 01:17:44 25° SW 01:21:24 52° WNW 01:27:37 10° N
ERBS 2.7 01:22:26 37° SE 01:22:32 37° SE 01:25:24 10° ENE
Cosmos 1269 Rocket 4.2 01:19:30 10° NNW 01:24:49 75° ENE 01:30:05 10° SSE
Cosmos 839 Rocket 4.4 01:18:41 10° NW 01:24:52 54° WSW 01:31:07 14° SSE
COSMOS 2428 3.7 01:24:40 16° WSW 01:28:45 39° NW 01:34:05 10° NNE
Cosmos 1437 Rocket 4.0 01:26:04 10° NW 01:29:07 24° W 01:29:41 23° WSW
Cosmos 2237 Rocket 2.2 01:26:10 27° SSW 01:29:27 85° WNW 01:35:13 10° NNE
Cosmos 332 Rocket 3.8 01:27:04 29° SSW 01:29:31 78° ESE 01:34:20 10° NNE
Lacrosse 5 rocket 3.3 01:29:07 14° SE 01:30:12 15° SE 01:32:33 10° E
Cosmos 1953 3.6 01:28:11 10° NNW 01:31:33 26° W 01:32:30 23° WSW
Cosmos 405 Rocket 4.3 01:32:44 19° W 01:34:09 23° WNW 01:37:13 10° NNW
CZ-4C R/B 3.8 01:31:04 10° WNW 01:37:27 32° WSW 01:41:38 21° SSW
MOS 1 Rocket 3.5 01:34:12 12° SSE 01:38:02 59° ENE 01:42:17 10° N
Cosmos 2084 Rocket 3.7 01:42:19 28° S 01:43:54 45° SE 01:47:33 10° NE
Cosmos 1455 Rocket 3.2 01:40:11 10° NNW 01:44:35 57° W 01:46:58 25° SSW
Cosmos 2297 4.0 01:40:09 10° NNW 01:45:56 71° ENE 01:51:39 10° SE
SME Rocket 3.7 01:45:41 27° SSW 01:47:24 41° W 01:52:08 10° NNW
SAR-Lupe-2 4.1 01:44:26 10° NNE 01:47:57 51° E 01:50:02 22° S
UNK 3.7 01:44:25 15° SSE 01:48:13 88° ENE 01:52:51 10° NNW
Cosmos 1943 Rocket 2.2 01:46:06 10° NNW 01:51:49 87° WSW 01:57:29 10° SSE
Lacrosse 5 2.6 01:49:58 22° S 01:52:48 42° SE 01:57:36 10° ENE
Resurs 1-4 Rocket 2.1 01:47:57 10° NNE 01:53:14 83° WNW 01:56:52 21° SSW
Cosmos 1536 Rocket 4.5 01:50:50 13° SSE 01:54:27 44° E 01:58:39 10° NNE
USA 306 2.8 01:52:08 22° WSW 01:54:44 85° SSE 01:58:56 10° ENE
USA 307 2.8 01:55:04 23° SW 01:57:39 80° SSE 02:01:52 10° ENE
Cosmos 2278 Rocket 3.3 01:53:22 10° NW 01:57:56 25° WSW 02:00:11 20° SW
Cosmos 1975 Rocket 3.6 01:59:45 23° SW 02:02:15 47° WNW 02:06:36 10° N
YAOGAN 11 4.1 02:00:10 15° S 02:03:45 71° WSW 02:08:15 10° NNW
COSMOS 2455 3.8 02:00:50 13° S 02:05:41 39° ESE 02:11:14 10° NE
ADEOS II 2.2 02:05:56 10° NNE 02:11:14 79° ESE 02:15:40 15° S
Cosmos 2369 Rocket 2.8 02:07:38 10° NNW 02:13:12 60° ENE 02:18:42 10° SE
NOSS 3 (A) 3.7 02:13:15 41° WNW 02:13:21 42° NW 02:15:04 10° NNE
Cosmos 1025 Rocket 3.6 02:10:49 20° SW 02:13:28 44° WNW 02:17:37 10° N
AQUA 3.8 02:09:04 10° NNE 02:13:52 82° WNW 02:17:33 17° SSW
IDEFIX/ARIANE 42P 2.8 02:08:36 10° NNE 02:13:54 70° ESE 02:18:39 13° S
NPP 3.8 02:10:01 10° N 02:15:23 68° WNW 02:19:36 17° SSW
SL-16 R/B 2.3 02:11:47 17° SSW 02:16:12 80° ESE 02:21:54 10° NNE
MSX 4.2 02:14:02 10° NNE 02:19:46 62° ESE 02:25:29 10° S
Cosmos 2154 Rocket 4.0 02:15:41 10° N 02:22:04 81° W 02:28:22 10° S
Meteor 1-28 Rocket 3.2 02:20:38 14° S 02:23:48 59° W 02:27:30 10° NNW
USA 308 3.0 02:24:26 12° WSW 02:28:13 74° NNW 02:32:25 10° ENE
Cosmos 1656 Rocket 4.2 02:23:12 10° NNW 02:28:36 62° ENE 02:33:58 10° SE
Cosmos 1544 Rocket 4.3 02:26:38 10° NNW 02:30:42 36° W 02:33:55 15° SSW
Meteor 1-24 Rocket 4.1 02:26:29 15° SW 02:30:53 49° WNW 02:36:12 10° N
EO 1 Del DPAF 3.0 02:27:47 10° NNE 02:31:19 79° WNW 02:34:08 15° SSW
SL-16 R/B 3.1 02:28:36 12° SSW 02:33:54 40° W 02:39:45 10° NNW
IRS-1D 3.9 02:30:07 10° NNE 02:35:28 66° ESE 02:40:43 10° S
Cosmos 2251 Rocket 3.6 02:32:21 10° NNW 02:37:39 86° ENE 02:42:56 10° SSE
Helios 1B rocket 3.8 02:36:38 10° NNE 02:40:25 35° E 02:44:09 10° SSE
Cosmos 1271 Rocket 2.8 02:39:27 10° NNW 02:43:10 55° W 02:46:56 10° S
Cosmos 1455 3.1 02:40:15 10° NNW 02:43:30 29° W 02:46:11 13° SSW
Cosmos 614 Rocket 4.1 02:39:30 10° NNW 02:44:34 54° WSW 02:49:38 10° S
Helios 1A 3.6 02:45:05 10° SSW 02:49:01 38° W 02:52:58 10° NNW
Gblst 52 Del rocket 4.3 02:44:24 10° WNW 02:50:10 77° N 02:55:40 10° E
USA 215 4.4 02:45:53 10° ENE 02:52:03 47° N 02:58:15 10° WNW
USA 305 3.5 02:48:18 10° W 02:52:26 55° NNW 02:56:33 10° ENE
Cosmos 292 Rocket 3.8 02:49:21 10° SSW 02:54:05 85° WNW 02:58:55 10° NNE
Cosmos 1726 Rocket 3.8 02:51:49 10° N 02:56:15 74° E 03:00:38 10° SSE
Meteor 2-1 Rocket 4.3 02:51:11 10° NNW 02:57:02 90° NW 03:02:42 10° S
ERBS 3.3 02:55:02 10° W 02:57:54 35° NNW 03:00:46 10° NE
CZ-2D R/B 3.4 02:55:57 10° N 03:00:26 27° WNW 03:04:51 10° WSW
Cosmos 1328 4.0 03:01:16 10° S 03:05:11 71° E 03:09:11 10° NNE
Lacrosse 4 Rocket 4.5 03:05:43 10° ESE 03:05:52 10° ESE 03:06:00 10° ESE
Cosmos 2218 Rocket 4.2 03:00:59 10° N 03:07:14 78° E 03:13:31 10° SSE
Lacrosse 5 rocket 1.3 03:04:42 10° SW 03:08:37 84° SE 03:12:48 10° ENE
Cosmos 1943 3.6 03:06:35 10° SSW 03:12:11 63° ESE 03:17:50 10° NNE
Cosmos 2237 Rocket 4.0 03:10:06 10° W 03:14:24 21° NW 03:18:42 10° N
Genesis I 3.3 03:14:22 10° NW 03:18:28 90° WSW 03:22:28 10° SE
DELTA 2 DEB (DPAF) 4.5 03:16:24 10° SSE 03:20:48 73° ENE 03:25:14 10° N
